Wiscasset, ME

9:31 AM EDT on April 24, 2017 (GMT -0400)
Wiscasset

Weather History for KIWI - September, 2013

Change the Weather History Date:

Monday, September 23, 2013

  Actual Average Record
Temperature  
Mean Temperature 52 °F -  
Max Temperature 57 °F 64 °F 79 °F (2005)
Min Temperature 46 °F 43 °F 36 °F (2008)
Degree Days  
Heating Degree Days 14    
Growing Degree Days 2 (Base 50)    
Moisture  
Dew Point 40 °F    
Average Humidity 65    
Maximum Humidity 80    
Minimum Humidity 55    
Precipitation  
Precipitation 0.00 in - - ()
Sea Level Pressure  
Sea Level Pressure 29.87 in    
Wind  
Wind Speed 5 mph (WNW)    
Max Wind Speed 13 mph    
Max Gust Speed 24 mph    
Visibility 10 miles    
Events      
Averages and records for this station are not official NWS values.
T = Trace of Precipitation, MM = Missing Value Source: NWS Daily Summary

Daily Weather History Graph

Daily Weather History Graph

Search for Another Location

Airport or City:

Trip Planner

Search our weather history database for the weather conditions in past years. The results will help you decide how hot, cold, wet, or windy it might be!

Date:

Astronomy

Sep. 23, 2013 Rise Set
Actual Time 6:27 AM EDT 6:34 PM EDT
Civil Twilight 5:58 AM EDT 7:02 PM EDT
Nautical Twilight 5:24 AM EDT 7:36 PM EDT
Astronomical Twilight 4:50 AM EDT 8:10 PM EDT
Moon 8:54 PM EDT (9/23) 10:52 AM EDT (9/23)
Length of Visible Light 13h 04m
Length of Day
12h 06m
Waning Gibbous, 81% of the Moon is Illuminated
Sep 23
Waning Gibbous
Sep 26
Last Quarter
Oct 4
New
Oct 11
First Quarter
Oct 18
Full

Hourly Weather History & Observations

Time (EDT) Temp. Dew Point Humidity Pressure Visibility Wind Dir Wind Speed Gust Speed Precip Events Conditions
12:53 AM 51.1 °F 43.0 °F 74% 29.78 in 10.0 mi Variable 4.6 mph - N/A   Clear
1:53 AM 48.9 °F 43.0 °F 80% 29.78 in 10.0 mi WNW 3.5 mph - N/A   Clear
2:53 AM 48.9 °F 42.1 °F 77% 29.79 in 10.0 mi Calm Calm - N/A   Clear
3:53 AM 48.9 °F 39.9 °F 71% 29.80 in 10.0 mi Variable 4.6 mph - N/A   Clear
4:53 AM 46.9 °F 39.9 °F 77% 29.81 in 10.0 mi Calm Calm - N/A   Clear
6:53 AM 46.9 °F 37.9 °F 71% 29.84 in 10.0 mi WNW 5.8 mph - N/A   Clear
7:53 AM 48.9 °F 39.0 °F 69% 29.85 in 10.0 mi WNW 5.8 mph - N/A   Clear
8:53 AM 52.0 °F 39.0 °F 61% 29.86 in 10.0 mi Variable 6.9 mph - N/A   Clear
9:53 AM 54.0 °F 39.9 °F 59% 29.86 in 10.0 mi Calm Calm - N/A   Partly Cloudy
10:53 AM 55.9 °F 41.0 °F 57% 29.87 in 10.0 mi NW 9.2 mph 18.4 mph N/A   Clear
11:53 AM 55.9 °F 39.9 °F 55% 29.88 in 10.0 mi NW 12.7 mph 24.2 mph N/A   Scattered Clouds
12:53 PM 57.0 °F 41.0 °F 55% 29.88 in 10.0 mi WNW 9.2 mph 17.3 mph N/A   Mostly Cloudy
1:53 PM 55.9 °F 39.9 °F 55% 29.88 in 10.0 mi NW 11.5 mph 18.4 mph N/A   Overcast
2:53 PM 55.9 °F 39.9 °F 55% 29.89 in 10.0 mi NW 10.4 mph 18.4 mph N/A   Overcast
3:53 PM 55.9 °F 39.9 °F 55% 29.89 in 10.0 mi Variable 6.9 mph 18.4 mph N/A   Overcast
4:53 PM 54.0 °F 39.0 °F 57% 29.90 in 10.0 mi Variable 5.8 mph - N/A   Overcast
5:53 PM 53.1 °F 39.9 °F 61% 29.92 in 10.0 mi Variable 3.5 mph - N/A   Overcast
6:53 PM 52.0 °F 39.9 °F 63% 29.94 in 10.0 mi West 4.6 mph - N/A   Overcast
7:53 PM 51.1 °F 39.9 °F 66% 29.94 in 10.0 mi Variable 4.6 mph - N/A   Overcast
8:53 PM 51.1 °F 39.9 °F 66% 29.94 in 10.0 mi Variable 4.6 mph - N/A   Overcast
9:53 PM 51.1 °F 39.9 °F 66% 29.94 in 10.0 mi Variable 3.5 mph - N/A   Overcast
10:53 PM 50.0 °F 41.0 °F 71% 29.94 in 10.0 mi West 3.5 mph - N/A   Overcast
11:53 PM 50.0 °F 41.0 °F 71% 29.94 in 10.0 mi Calm Calm - N/A   Overcast